This demonstration page uses our WeatherBlox Daily Observations layout. Learn more.

39.92423, -83.80882

Hourly Observations for July 5, 2018

Temp ( °F °C ) Dew Point ( °F °C ) Humidity (%) Winds ( mph kmh ) Pressure ( in mb ) Visibility ( mi km ) Precip ( " mm )
12:56 am 00:56 Mostly Clear with Mist and Fog 73 22.8 73 22.8 100 100 Calm 30.25 1025 6 9.65604 0 0
1:56 am 01:56 Clear 73 22.8 73 22.8 100 100 Calm 30.24 1024 7 11.26538 0 0
2:56 am 02:56 Mostly Clear with Mist and Fog 72 22.2 71 21.7 97 97 Calm 30.24 1024 6 9.65604 0 0
3:56 am 03:56 Mostly Clear with Mist and Fog 72 22.2 71 21.7 97 97 Calm 30.23 1024 6 9.65604 0 0
4:56 am 04:56 Mostly Clear with Mist and Fog 70 21.1 70 21.1 100 100 Calm 30.24 1024 6 9.65604 0 0
5:56 am 05:56 Clear 72 22.2 71 21.7 97 97 S 6 9 30.23 1024 9 14.48406 0 0
6:56 am 06:56 Sunny 72 22.2 71 21.7 97 97 Calm 30.26 1025 9 14.48406 0 0
7:56 am 07:56 Sunny 78 25.6 74 23.3 87 87 Calm 30.27 1025 10 16.0934 0 0
8:56 am 08:56 Sunny 82 27.8 75 23.9 79 79 Calm 30.28 1025 10 16.0934 0 0
9:56 am 09:56 Sunny 84 28.9 77 25 80 80 SW 3 6 30.28 1025 10 16.0934 0 0
10:56 am 10:56 Sunny 87 30.6 76 24.4 70 70 WNW 8 13 30.28 1025 10 16.0934 0 0
11:56 am 11:56 Sunny 88 31.1 77 25 70 70 WNW 8 13 30.25 1024 10 16.0934 0 0
12:56 pm 12:56 Sunny 89 31.7 75 23.9 63 63 VRB 6 9 30.24 1024 10 16.0934 0 0
1:56 pm 13:56 Sunny 89 31.7 76 24.4 65 65 W 5 7 30.24 1024 10 16.0934 0 0
2:56 pm 14:56 Sunny 90 32.2 75 23.9 62 62 NW 5 7 30.2 1023 10 16.0934 0 0
3:31 pm 15:31 Partly Cloudy with Thunderstorms 91 33 75 24 59 59 W 9 15 30.15 1021 10 16.0934 0 0
3:56 pm 15:56 Partly Cloudy with Nearby Thunderstorms 92 33.3 75 23.9 58 58 WNW 12 19 30.18 1022 10 16.0934 0 0
4:00 pm 16:00 Partly Cloudy with Nearby Thunderstorms 91 33 75 24 59 59 W 9 15 30.15 1021 10 16.0934 0 0
4:38 pm 16:38 Sunny 91 33 73 23 56 56 W 9 15 30.12 1020 10 16.0934 0 0
4:56 pm 16:56 Partly Cloudy with Nearby Thunderstorms 91 32.8 75 23.9 59 59 WNW 9 15 30.17 1022 10 16.0934 0 0
6:56 pm 18:56 Partly Cloudy with Nearby Thunderstorms 82 27.8 76 24.4 82 82 NW 10 17 30.19 1022 10 16.0934 0 0.0254
7:01 pm 19:01 Partly Cloudy with Nearby Thunderstorms 82 28 75 24 79 79 NW 10 17 30.15 1021 10 16.0934 0 0
7:22 pm 19:22 Sunny 82 28 75 24 79 79 WNW 7 11 30.15 1021 10 16.0934 0 0
7:56 pm 19:56 Sunny 82 27.8 74 23.3 77 77 WNW 7 11 30.19 1022 10 16.0934 0 0
8:56 pm 20:56 Sunny 79 26.1 72 22.2 79 79 NW 7 11 30.2 1023 10 16.0934 0 0
9:56 pm 21:56 Clear 77 25 73 22.8 88 88 WNW 7 11 30.2 1023 10 16.0934 0 0
10:56 pm 22:56 Clear 76 24.4 73 22.8 91 91 W 3 6 30.22 1023 10 16.0934 0 0
11:56 pm 23:56 Clear 75 23.9 72 22.2 90 90 WNW 6 9 30.22 1023 10 16.0934 0 0

Powered by AerisWeather